This is the latest recevied weather packets stored in our database for station/object IR3AS. If no packets are shown the sender has not sent any weather packets the latest 10 day(s).
| Time | Temp. | Humidity | Pressure | Rain* | Wind** | Luminosity | Snow |
|---|---|---|---|---|---|---|---|
| 1787558410 | 12.22° C | 83% | 867.6 hPa | 0 mm | - | - | - |
| 1787558110 | 12.22° C | 84% | 867.8 hPa | 0 mm | - | - | - |
| 1787557811 | 11.67° C | 84% | 867.8 hPa | 0 mm | - | - | - |
| 1787557509 | 11.67° C | 83% | 867.5 hPa | 0 mm | - | - | - |
| 1787557210 | 11.67° C | 82% | 867.8 hPa | 0 mm | - | - | - |
| 1787556910 | 11.67° C | 82% | 867.9 hPa | 0 mm | - | - | - |
| 1787556610 | 12.22° C | 81% | 867.7 hPa | 0 mm | - | - | - |
| 1787556310 | 12.78° C | 81% | 867.8 hPa | 0 mm | - | - | - |
| 1787556010 | 13.33° C | 82% | 867.8 hPa | 0 mm | - | - | - |
| 1787555710 | 13.33° C | 85% | 867.6 hPa | 0 mm | - | - | - |
| 1787555409 | 13.33° C | 85% | 867.3 hPa | 0 mm | - | - | - |
| 1787555144 | 13.33° C | 85% | 867.5 hPa | 0 mm | - | - | - |
| 1787555109 | 13.33° C | 85% | 867.5 hPa | 0 mm | - | - | - |
| 1787554809 | 12.78° C | 85% | 867.6 hPa | 0 mm | - | - | - |
| 1787554509 | 12.78° C | 85% | 867.5 hPa | 0 mm | - | - | - |
| 1787554211 | 12.78° C | 85% | 867.3 hPa | 0 mm | - | - | - |
| 1787553909 | 12.78° C | 83% | 866.9 hPa | 0 mm | - | - | - |
| 1787553610 | 12.78° C | 82% | 866.9 hPa | 0 mm | - | - | - |
| 1787553342 | 13.33° C | 80% | 866.9 hPa | 0 mm | - | - | - |
| 1787553309 | 13.33° C | 80% | 866.9 hPa | 0 mm | - | - | - |
| 1787553009 | 14.44° C | 80% | 866.6 hPa | 0 mm | - | - | - |
| 1787552709 | 15° C | 80% | 866.8 hPa | 0 mm | - | - | - |
| 1787552410 | 14.44° C | 81% | 866.6 hPa | 0 mm | - | - | - |
| 1787552109 | 13.89° C | 84% | 867 hPa | 0 mm | - | - | - |
| 1787551809 | 12.78° C | 87% | 867.1 hPa | 0 mm | - | - | - |
* Rain latest hour (hover to see other rain measurements)
** Current wind speed in m/s (hover to see current wind gust speed)